Vorticity
4 5 5 5 4 4 4 3 3 3 3 3 4 5 7 5 6 7 7 5 4 6 4 4 6 6 5 6 6 7 7 6 5 5 3 4 3 1 2 5 6 3 6 1 -3
8 5 5 6 6 5 4 4 4 4 4 2 3 3 4 5 4 4 5 6 5 4 4 3 2 4 4 4 5 5 6 6 6 5 4 2 3 2 3 4 -1 -0 -2 1 3
3 6 7 6 6 6 5 5 5 5 5 5 4 3 3 4 4 5 5 5 6 5 3 3 4 2 3 3 4 4 5 4 5 6 6 5 4 3 3 6 3 3 -0 -5 -5
1 1 2 4 6 6 5 5 6 6 6 5 6 5 3 3 4 4 5 4 4 4 4 3 4 5 3 4 4 4 5 5 5 6 4 3 4 3 5 1 -1 -3 2 8 4
6 4 2 1 1 4 5 6 5 5 5 6 6 6 5 4 5 1 3 5 5 5 5 4 4 5 6 6 5 6 6 5 4 5 4 3 4 4 -1 -1 2 2 2 1 2
2 3 5 3 3 2 2 3 3 4 4 4 4 4 4 5 5 5 4 4 5 4 3 3 3 2 3 5 5 3 3 4 4 4 5 4 2 2 3 3 4 6 5 3 3
5 -2 3 6 5 3 3 3 2 3 3 4 3 4 2 4 4 5 4 6 5 5 6 6 4 4 5 4 5 5 3 1 2 3 2 4 4 1 2 3 2 -1 -1 1 2
3 8 5 6 6 5 5 5 4 -0 4 3 -1 -0 -8 7 5 1 4 3 5 2 3 4 5 6 5 6 6 3 2 2 0 1 2 2 -0 1 2 1 3 3 8 11 17
5 3 7 3 5 5 14 4 -10 -6 12 10 4 10 -9 -1 3 16 7 2 1 4 3 0 2 -0 3 -3 -3 1 3 1 -4 1 5 2 2 4 12 23 25 25 23 16 7
7 8 8 6 1 0 -1 5 6 7 4 -5 -8 -4 2 5 2 6 3 0 2 1 1 6 5 -3 -4 5 0 -1 -4 -3 -4 6 15 23 21 16 16 6 4 6 8 10 13
13 4 6 6 7 3 9 8 -3 -4 5 4 -4 9 6 6 0 -3 -3 3 -2 7 5 5 20 16 16 15 21 27 37 29 24 20 12 11 9 13 4 10 8 9 12 11 11
27 7 18 13 11 8 5 4 10 5 4 10 9 3 7 3 -3 5 10 15 12 15 7 7 6 9 13 15 10 13 10 13 10 8 9 6 10 10 10 14 16 13 13 13 12
-31 -0 39 1 13 4 11 10 8 7 6 3 2 2 0 1 10 11 12 15 17 14 9 11 10 13 9 8 9 6 7 7 9 6 9 11 15 15 16 15 14 10 9 12 15
7 17 -25 32 26 17 18 17 15 16 19 16 18 15 17 17 13 10 8 12 14 14 18 13 14 9 6 5 6 6 12 11 11 10 9 9 12 10 7 5 6 7 7 9 13
1 -33 -14 4 39 17 -13 19 20 12 13 13 12 12 10 4 6 -2 9 6 8 11 7 9 2 5 6 8 11 16 8 11 11 9 5 6 11 1 -1 7 9 14 9 9 6
8 6 5 3 -14 19 1 10 -8 18 6 12 9 18 2 4 11 7 -0 7 -1 -0 0 4 8 10 12 11 10 7 11 9 5 3 3 2 12 4 6 4 5 5 7 4 -2
1 3 7 -1 -3 -10 10 25 5 3 10 -8 3 18 12 6 9 10 1 11 16 14 16 22 18 10 18 14 5 11 4 4 8 6 9 8 8 10 9 6 6 5 6 4 -1
6 4 7 6 -7 -61 -1 -4 30 13 15 38 29 37 21 22 14 13 16 19 9 13 11 11 13 10 10 7 8 7 10 4 1 6 16 13 3 8 3 6 5 4 -3 -4 1
9 9 6 6 -2 -2 -50 9 -5 8 -10 6 -13 -4 14 9 6 27 -5 -4 -1 9 2 14 10 15 10 9 14 13 6 14 9 4 2 1 6 2 1 0 0 2 1 -4 -1
3 6 11 7 9 5 -2 2 19 -42 -7 0 6 -5 -3 24 16 -3 5 13 11 14 31 15 4 6 6 5 6 9 13 6 4 3 8 9 1 -8 2 6 5 5 7 3 3
7 6 6 16 7 14 3 29 -5 -54 29 -34 2 14 1 18 -29 -8 20 3 1 21 5 -16 -5 4 5 12 18 23 8 2 6 1 -2 -3 -7 14 7 -7 1 15 13 16 9
16 5 7 6 9 1 11 12 15 -9 -18 4 1 3 -5 5 4 27 6 -20 19 -4 -1 4 7 -1 14 13 14 10 0 -3 -3 5 2 7 -0 9 3 6 12 8 -0 9 6
14 14 13 8 1 21 24 1 10 22 1 5 14 20 3 -11 1 13 7 27 18 -2 -2 27 7 15 14 20 12 0 -12 -16 2 -4 2 10 13 -0 6 7 3 8 13 18 18
30 -4 15 7 3 -24 -11 -0 19 8 4 10 13 -2 17 -1 7 32 -5 6 2 -3 1 12 11 9 1 -5 3 10 11 8 -6 4 13 -0 5 7 8 3 12 16 20 16 16
9 17 11 1 3 12 29 5 12 3 4 2 -5 -5 -10 21 3 7 -17 10 7 17 14 16 13 4 -7 18 9 -1 11 -5 -17 2 17 18 6 2 2 16 9 11 9 18 11
-18 -9 11 24 18 -12 -3 21 46 31 31 11 33 14 40 -14 17 23 14 5 10 -10 26 20 6 2 9 32 12 11 -13 -5 -11 15 13 6 3 5 17 12 10 9 0 9 10
5 35 -6 9 11 32 0 -6 -37 6 7 15 -3 15 18 -11 8 -10 9 -10 1 -7 38 5 -10 8 20 -5 -9 6 9 9 25 32 5 7 4 15 7 4 13 6 1 -1 2
Height
5800 5805 5809 5814 5818 5821 5825 5828 5832 5835 5838 5841 5844 5847 5850 5852 5856 5858 5860 5863 5865 5867 5870 5872 5873 5874 5876 5878 5879 5881 5884 5885 5885 5886 5887 5888 5887 5885 5885 5886 5884 5882 5883 5885 5885
5791 5796 5800 5805 5810 5814 5818 5821 5825 5829 5833 5836 5839 5842 5845 5846 5850 5853 5855 5858 5860 5862 5865 5867 5869 5869 5871 5873 5875 5877 5879 5880 5881 5883 5884 5884 5883 5882 5881 5883 5879 5876 5878 5880 5879
5782 5787 5792 5796 5801 5805 5810 5814 5818 5822 5826 5830 5834 5837 5840 5841 5843 5848 5851 5853 5855 5857 5859 5862 5864 5866 5866 5867 5870 5872 5873 5874 5875 5876 5878 5878 5878 5877 5877 5881 5873 5874 5874 5875 5874
5772 5777 5783 5787 5792 5796 5801 5805 5810 5815 5819 5822 5827 5830 5833 5836 5839 5841 5844 5847 5850 5852 5854 5856 5858 5861 5861 5862 5864 5866 5867 5869 5870 5870 5871 5871 5872 5871 5872 5874 5870 5869 5868 5868 5867
5762 5767 5772 5777 5782 5788 5792 5797 5801 5806 5810 5815 5819 5822 5826 5830 5831 5834 5838 5841 5843 5845 5848 5850 5852 5853 5856 5857 5856 5857 5861 5862 5863 5864 5864 5863 5865 5864 5866 5863 5864 5864 5864 5861 5858
5750 5756 5761 5767 5772 5777 5783 5787 5792 5797 5801 5806 5811 5814 5818 5823 5823 5826 5830 5833 5836 5839 5841 5843 5845 5846 5848 5850 5851 5853 5854 5855 5856 5856 5856 5856 5858 5857 5856 5856 5857 5856 5855 5853 5850
5739 5744 5750 5756 5761 5766 5772 5777 5782 5787 5793 5797 5803 5807 5810 5813 5816 5820 5821 5826 5829 5831 5833 5835 5837 5839 5841 5842 5844 5845 5846 5847 5848 5847 5846 5848 5849 5849 5847 5849 5848 5847 5846 5843 5842
5724 5732 5739 5744 5749 5755 5760 5766 5771 5778 5783 5789 5794 5797 5803 5804 5807 5812 5815 5818 5821 5823 5824 5826 5829 5830 5832 5834 5835 5837 5837 5838 5838 5837 5836 5840 5841 5840 5839 5839 5839 5837 5836 5833 5831
5711 5719 5726 5732 5737 5743 5748 5756 5761 5767 5773 5778 5783 5787 5794 5796 5799 5804 5808 5809 5811 5814 5816 5816 5819 5821 5824 5826 5827 5828 5827 5826 5828 5829 5830 5829 5829 5829 5828 5829 5828 5827 5825 5823 5821
5697 5705 5712 5719 5725 5730 5737 5743 5748 5755 5761 5767 5771 5778 5783 5787 5790 5793 5795 5799 5802 5805 5806 5808 5808 5809 5815 5817 5815 5813 5816 5819 5819 5820 5818 5819 5820 5819 5818 5818 5818 5817 5818 5817 5815
5684 5692 5699 5705 5711 5717 5726 5732 5738 5744 5751 5757 5760 5765 5769 5774 5780 5784 5786 5788 5790 5793 5795 5796 5798 5802 5804 5802 5802 5804 5805 5808 5809 5807 5808 5809 5810 5810 5809 5809 5808 5809 5808 5807 5807
5673 5680 5687 5691 5698 5706 5712 5718 5726 5730 5736 5741 5747 5753 5758 5762 5768 5772 5775 5777 5778 5781 5783 5787 5789 5791 5791 5793 5794 5795 5796 5798 5799 5798 5799 5799 5801 5801 5800 5799 5799 5798 5798 5797 5796
5658 5668 5675 5681 5684 5692 5702 5710 5713 5717 5719 5728 5735 5741 5748 5752 5755 5758 5762 5765 5768 5771 5774 5776 5779 5782 5782 5783 5785 5787 5788 5788 5789 5789 5789 5791 5793 5792 5792 5792 5791 5791 5790 5790 5789
5647 5656 5665 5666 5668 5682 5691 5694 5700 5704 5704 5714 5723 5729 5734 5738 5742 5745 5752 5757 5759 5762 5763 5767 5770 5772 5774 5774 5776 5778 5779 5778 5780 5781 5783 5783 5786 5787 5785 5785 5785 5785 5785 5785 5785
5632 5644 5652 5657 5654 5672 5683 5682 5686 5692 5690 5701 5709 5717 5723 5728 5734 5738 5741 5745 5749 5753 5756 5759 5759 5762 5764 5767 5766 5770 5768 5772 5772 5773 5774 5775 5777 5781 5778 5778 5779 5779 5779 5780 5779
5616 5627 5636 5641 5644 5659 5668 5669 5672 5676 5671 5686 5696 5705 5712 5717 5723 5726 5732 5735 5739 5741 5745 5748 5750 5754 5757 5757 5758 5760 5763 5764 5764 5763 5766 5769 5769 5773 5771 5770 5770 5772 5772 5772 5772
5598 5609 5621 5631 5639 5649 5657 5656 5649 5649 5666 5678 5687 5695 5700 5705 5711 5717 5719 5724 5728 5729 5735 5740 5742 5744 5747 5748 5749 5753 5755 5755 5754 5754 5758 5760 5759 5764 5762 5763 5763 5762 5762 5761 5761
5580 5592 5603 5614 5624 5634 5636 5633 5631 5647 5660 5670 5676 5678 5688 5693 5700 5706 5709 5713 5719 5722 5725 5729 5733 5735 5738 5739 5742 5743 5745 5745 5745 5747 5749 5749 5750 5754 5755 5755 5755 5754 5753 5752 5752
5562 5572 5583 5597 5609 5620 5620 5610 5621 5641 5651 5658 5664 5668 5677 5682 5688 5696 5701 5705 5709 5714 5717 5719 5721 5725 5727 5730 5731 5733 5733 5738 5735 5736 5737 5739 5744 5744 5745 5744 5745 5746 5746 5744 5742
5540 5553 5564 5583 5594 5601 5598 5600 5613 5631 5642 5643 5652 5660 5667 5673 5678 5686 5690 5697 5701 5705 5706 5708 5711 5715 5717 5719 5720 5723 5727 5724 5723 5727 5727 5729 5731 5733 5734 5733 5734 5735 5735 5733 5731
5521 5530 5551 5565 5578 5573 5576 5593 5603 5616 5625 5631 5642 5650 5659 5664 5668 5675 5681 5688 5692 5696 5697 5696 5700 5706 5707 5708 5711 5713 5715 5716 5717 5717 5717 5718 5720 5721 5720 5720 5722 5722 5721 5720 5717
5499 5510 5536 5551 5551 5554 5562 5583 5598 5604 5611 5619 5632 5642 5650 5655 5658 5664 5672 5678 5680 5685 5687 5689 5689 5692 5696 5699 5700 5701 5704 5705 5704 5709 5708 5706 5709 5709 5707 5707 5707 5709 5708 5707 5704
5485 5502 5515 5528 5533 5540 5558 5569 5583 5591 5602 5611 5622 5631 5639 5644 5648 5656 5662 5666 5669 5673 5676 5680 5678 5682 5685 5688 5690 5693 5697 5697 5697 5697 5695 5697 5698 5698 5696 5694 5696 5696 5696 5693 5692
5471 5479 5492 5502 5518 5533 5547 5557 5571 5584 5590 5599 5610 5618 5624 5631 5636 5645 5651 5658 5661 5665 5665 5664 5666 5672 5676 5682 5683 5683 5687 5687 5684 5682 5686 5687 5689 5685 5683 5683 5683 5681 5682 5682 5681
5455 5459 5476 5488 5505 5526 5538 5548 5560 5567 5576 5586 5594 5607 5615 5619 5624 5631 5640 5646 5649 5653 5653 5652 5655 5660 5664 5668 5668 5672 5674 5674 5672 5673 5670 5677 5676 5672 5671 5671 5669 5667 5667 5667 5667
5439 5455 5467 5489 5506 5513 5524 5533 5545 5555 5565 5573 5585 5599 5601 5605 5616 5625 5630 5634 5637 5640 5641 5640 5642 5647 5648 5652 5654 5655 5657 5658 5659 5657 5656 5660 5662 5658 5656 5656 5657 5656 5655 5655 5654
5432 5447 5463 5479 5491 5501 5510 5527 5537 5546 5555 5566 5578 5585 5590 5603 5604 5610 5614 5619 5621 5628 5630 5632 5633 5635 5633 5637 5637 5636 5644 5644 5643 5643 5646 5646 5655 5648 5644 5644 5645 5644 5642 5641 5640